Starlink 6082

operational
NORAD ID: 56110 Int'l Des: 2023-046 Owner: SPXS Country: US Constellation: starlink
LEOCIRCULAR

Starlink 6082について

説明を読み込み中...

リアルタイム位置

3D地球を読み込み中...

次回通過

高度履歴

Altitude vs Time

uPlot chart will show altitude changes over time

軌道要素

1 56110U 23046T 25303.99518731 -.00000792 00000-0 -43541-4 0 9995
2 56110 43.0099 143.5777 0002787 262.4578 97.5948 15.02517961142558
Epoch: Oct 30, 2025 • Age: 18 hours

現在のステータス

高度 563.6 km
速度 7.58 km/s
衛星直下点 40.36°N, 102.02°W
打ち上げ日 Mar 29, 2023
運用期間 2.5 years
タイプ internet

技術仕様

分類 Payload
質量 305.00 kg
乾燥質量 290.00 kg
総質量 305.00 kg
長さ 0.20 m
直径 2.80 m
スパン 9.00 m
形状 Box + pan
製造者 SPXS
バスタイプ Starlink
フェーズステータス In Orbit
所有者/国 SPXS/US

大規模コンステレーション

Loading constellations...